This is the latest recevied weather packets stored in our database for station/object CT1EDG-13. If no packets are shown the sender has not sent any weather packets the latest 10 day(s).
| Time | Temp. | Humidity | Pressure | Rain* | Wind** | Luminosity | Snow |
|---|---|---|---|---|---|---|---|
| 1788621846 | 33.33° C | 53% | 1007.7 hPa | 0 mm | - | - | - |
| 1788621842 | 33.33° C | 53% | 1007.7 hPa | 0 mm | - | - | - |
| 1788621244 | 32.78° C | 57% | 1007.8 hPa | 0 mm | - | - | - |
| 1788621241 | 32.78° C | 57% | 1007.8 hPa | 0 mm | - | - | - |
| 1788620642 | 33.89° C | 56% | 1007.9 hPa | 0 mm | - | - | - |
| 1788620641 | 33.89° C | 56% | 1007.9 hPa | 0 mm | - | - | - |
| 1788620042 | 35° C | 52% | 1007.8 hPa | 0 mm | - | - | - |
| 1788620041 | 35° C | 52% | 1007.8 hPa | 0 mm | - | - | - |
| 1788619443 | 36.67° C | 44% | 1007.8 hPa | 0 mm | - | - | - |
| 1788619441 | 36.67° C | 44% | 1007.8 hPa | 0 mm | - | - | - |
| 1788618841 | 37.22° C | 40% | 1007.8 hPa | 0 mm | - | - | - |
| 1788618840 | 37.22° C | 40% | 1007.8 hPa | 0 mm | - | - | - |
| 1788618242 | 37.22° C | 40% | 1007.8 hPa | 0 mm | - | - | - |
| 1788618240 | 37.22° C | 40% | 1007.8 hPa | 0 mm | - | - | - |
| 1788617643 | 37.78° C | 39% | 1007.8 hPa | 0 mm | - | - | - |
| 1788617640 | 37.78° C | 39% | 1007.8 hPa | 0 mm | - | - | - |
| 1788617041 | 36.67° C | 43% | 1007.9 hPa | 0 mm | - | - | - |
| 1788617040 | 36.67° C | 43% | 1007.9 hPa | 0 mm | - | - | - |
| 1788616441 | 36.67° C | 44% | 1007.9 hPa | 0 mm | - | - | - |
| 1788616440 | 36.67° C | 44% | 1007.9 hPa | 0 mm | - | - | - |
| 1788615842 | 35.56° C | 45% | 1008 hPa | 0 mm | - | - | - |
| 1788615840 | 35.56° C | 45% | 1008 hPa | 0 mm | - | - | - |
| 1788615244 | 35° C | 46% | 1008.2 hPa | 0 mm | - | - | - |
| 1788615240 | 35° C | 46% | 1008.2 hPa | 0 mm | - | - | - |
| 1788614641 | 35.56° C | 48% | 1008.3 hPa | 0 mm | - | - | - |
* Rain latest hour (hover to see other rain measurements)
** Current wind speed in m/s (hover to see current wind gust speed)